Private Wetterstation Wechselburg
Wetterdaten: Samstag, 02.01.2010
Datum Zeit Temp. +2m Bodentemp. Temp.+5cm Temp. Wind Windchill X Diff Temp. Feuchte +2m Feuchte +5cm Sonnenschein Luftdruck Regen Wind Richtung Richtung Sonnenschein UV Taupunkt Windchill Windben
02.01.2010 00:00 -1,9 C 2,9 C -2,4 C -2,3 C -3,0 C 0,0 C 90 % 96 % 0 % 1002,0 hPa 0,0 l/m 0,0 km/h (0 Bft) NO 45 0 min 0,0 UV-I -3,3 C -3,0 C 0,0 km/h (0 Bft)
02.01.2010 00:10 -1,9 C 2,9 C -2,4 C -2,3 C -3,0 C 0,0 C 90 % 96 % 0 % 1002,0 hPa 0,0 l/m 0,0 km/h (0 Bft) NO 45 0 min 0,0 UV-I -3,3 C -3,0 C 0,0 km/h (0 Bft)
02.01.2010 00:15 -1,9 C 2,9 C -2,4 C -2,3 C -3,0 C 0,0 C 90 % 96 % 0 % 1001,9 hPa 0,0 l/m 0,0 km/h (0 Bft) NO 45 0 min 0,0 UV-I -3,3 C -3,0 C 0,0 km/h (0 Bft)
02.01.2010 00:20 -1,9 C 2,8 C -2,4 C -2,3 C -3,0 C 0,0 C 90 % 96 % 0 % 1001,9 hPa 0,0 l/m 0,2 km/h (0 Bft) NO 45 0 min 0,0 UV-I -3,3 C -3,0 C 0,0 km/h (0 Bft)
02.01.2010 00:25 -1,9 C 2,9 C -2,4 C -2,3 C -3,0 C 0,0 C 90 % 96 % 0 % 1001,9 hPa 0,0 l/m 0,0 km/h (0 Bft) NO 45 0 min 0,0 UV-I -3,3 C -3,0 C 0,0 km/h (0 Bft)
02.01.2010 00:30 -2,0 C 2,9 C -2,4 C -2,4 C -3,1 C 0,0 C 90 % 96 % 0 % 1001,9 hPa 0,0 l/m 0,0 km/h (0 Bft) NO 45 0 min 0,0 UV-I -3,4 C -3,1 C 0,0 km/h (0 Bft)
02.01.2010 00:35 -2,0 C 2,8 C -2,4 C -2,4 C -3,1 C 0,0 C 90 % 96 % 0 % 1002,0 hPa 0,0 l/m 0,0 km/h (0 Bft) NO 45 0 min 0,0 UV-I -3,4 C -3,1 C 0,0 km/h (0 Bft)
02.01.2010 00:40 -2,0 C 3,0 C -2,5 C -2,4 C -3,1 C 0,0 C 90 % 96 % 0 % 1002,0 hPa 0,0 l/m 0,0 km/h (0 Bft) NO 45 0 min 0,0 UV-I -3,4 C -3,1 C 0,0 km/h (0 Bft)
02.01.2010 00:45 -1,9 C 3,0 C -2,4 C -2,3 C -3,1 C 0,0 C 90 % 96 % 0 % 1002,0 hPa 0,0 l/m 0,0 km/h (0 Bft) NO 45 0 min 0,0 UV-I -3,3 C -3,1 C 0,0 km/h (0 Bft)
02.01.2010 00:50 -1,9 C 3,0 C -2,4 C -2,3 C -3,1 C 0,0 C 90 % 96 % 0 % 1002,0 hPa 0,0 l/m 0,0 km/h (0 Bft) NO 45 0 min 0,0 UV-I -3,3 C -3,1 C 0,0 km/h (0 Bft)
02.01.2010 00:55 -1,9 C 3,0 C -2,4 C -2,3 C -3,2 C 0,0 C 90 % 96 % 0 % 1002,2 hPa 0,0 l/m 0,0 km/h (0 Bft) NO 45 0 min 0,0 UV-I -3,3 C -3,2 C 0,0 km/h (0 Bft)
02.01.2010 01:00 -1,9 C 3,0 C -2,4 C -2,3 C -3,1 C 0,0 C 90 % 96 % 0 % 1002,2 hPa 0,0 l/m 0,0 km/h (0 Bft) NO 45 0 min 0,0 UV-I -3,3 C -3,1 C 0,0 km/h (0 Bft)
02.01.2010 01:05 -1,9 C 2,9 C -2,3 C -2,3 C -3,1 C 0,0 C 90 % 96 % 0 % 1002,2 hPa 0,0 l/m 0,0 km/h (0 Bft) NO 45 0 min 0,0 UV-I -3,3 C -3,1 C 0,0 km/h (0 Bft)
02.01.2010 01:10 -1,7 C 3,0 C -2,3 C -2,2 C -3,1 C 0,0 C 90 % 96 % 0 % 1002,2 hPa 0,0 l/m 0,0 km/h (0 Bft) NO 45 0 min 0,0 UV-I -3,1 C -3,1 C 0,0 km/h (0 Bft)
02.01.2010 01:15 -1,7 C 2,9 C -2,3 C -2,2 C -3,1 C 0,0 C 90 % 96 % 0 % 1002,1 hPa 0,0 l/m 0,0 km/h (0 Bft) NO 45 0 min 0,0 UV-I -3,1 C -3,1 C 0,0 km/h (0 Bft)
02.01.2010 01:20 -1,7 C 2,8 C -2,3 C -2,2 C -3,1 C 0,0 C 90 % 96 % 0 % 1002,1 hPa 0,0 l/m 0,0 km/h (0 Bft) NO 45 0 min 0,0 UV-I -3,1 C -3,1 C 0,0 km/h (0 Bft)
02.01.2010 01:25 -1,7 C 2,9 C -2,4 C -2,2 C -3,1 C 0,0 C 90 % 96 % 0 % 1002,1 hPa 0,0 l/m 0,2 km/h (0 Bft) NO 45 0 min 0,0 UV-I -3,1 C -3,1 C 2,4 km/h (1 Bft)
02.01.2010 01:30 -1,7 C 2,8 C -2,3 C -2,2 C -3,1 C 0,0 C 90 % 96 % 0 % 1002,1 hPa 0,0 l/m 0,8 km/h (0 Bft) NO 45 0 min 0,0 UV-I -3,1 C -3,1 C 0,0 km/h (0 Bft)
02.01.2010 01:35 -1,9 C 2,9 C -2,5 C -2,3 C -3,1 C 0,0 C 90 % 96 % 0 % 1002,4 hPa 0,0 l/m 0,8 km/h (0 Bft) NO 45 0 min 0,0 UV-I -3,3 C -3,1 C 4,5 km/h (1 Bft)
02.01.2010 01:40 -1,9 C 2,9 C -2,3 C -2,3 C -3,1 C 0,0 C 90 % 96 % 0 % 1002,4 hPa 0,0 l/m 0,5 km/h (0 Bft) NO 45 0 min 0,0 UV-I -3,3 C -3,1 C 1,6 km/h (1 Bft)
02.01.2010 01:45 -1,9 C 2,9 C -2,5 C -2,3 C -3,1 C 0,0 C 90 % 96 % 0 % 1002,4 hPa 0,0 l/m 0,6 km/h (0 Bft) NO 45 0 min 0,0 UV-I -3,3 C -3,1 C 0,0 km/h (0 Bft)
02.01.2010 01:50 -1,9 C 2,9 C -2,3 C -2,3 C -3,1 C 0,0 C 90 % 96 % 0 % 1002,4 hPa 0,0 l/m 0,5 km/h (0 Bft) NO 45 0 min 0,0 UV-I -3,3 C -3,1 C 0,0 km/h (0 Bft)
02.01.2010 01:55 -1,7 C 2,8 C -2,5 C -2,2 C -3,1 C 0,0 C 90 % 96 % 0 % 1002,6 hPa 0,0 l/m 0,3 km/h (0 Bft) NO 45 0 min 0,0 UV-I -3,1 C -3,1 C 0,0 km/h (0 Bft)
02.01.2010 02:00 -1,9 C 2,8 C -2,5 C -2,3 C -3,1 C 0,0 C 90 % 96 % 0 % 1002,6 hPa 0,0 l/m 0,0 km/h (0 Bft) NO 45 0 min 0,0 UV-I -3,3 C -3,1 C 0,0 km/h (0 Bft)
02.01.2010 02:05 -1,7 C 2,8 C -2,4 C -2,2 C -3,1 C 0,0 C 90 % 96 % 0 % 1002,6 hPa 0,0 l/m 0,2 km/h (0 Bft) NO 45 0 min 0,0 UV-I -3,1 C -3,1 C 2,3 km/h (1 Bft)
02.01.2010 02:10 -1,9 C 2,8 C -2,5 C -2,3 C -3,0 C 0,0 C 89 % 96 % 0 % 1002,6 hPa 0,0 l/m 0,2 km/h (0 Bft) NO 45 0 min 0,0 UV-I -3,5 C -3,0 C 0,0 km/h (0 Bft)
02.01.2010 02:15 -1,9 C 2,9 C -2,5 C -2,3 C -3,1 C 0,0 C 89 % 96 % 0 % 1002,9 hPa 0,0 l/m 0,2 km/h (0 Bft) NO 45 0 min 0,0 UV-I -3,5 C -3,1 C 0,0 km/h (0 Bft)
02.01.2010 02:20 -1,9 C 2,9 C -2,4 C -2,3 C -3,1 C 0,0 C 89 % 96 % 0 % 1002,9 hPa 0,0 l/m 0,3 km/h (0 Bft) NO 45 0 min 0,0 UV-I -3,5 C -3,1 C 0,0 km/h (0 Bft)
02.01.2010 02:25 -1,9 C 2,9 C -2,5 C -2,3 C -3,1 C 0,0 C 89 % 96 % 0 % 1002,9 hPa 0,0 l/m 0,5 km/h (0 Bft) NO 45 0 min 0,0 UV-I -3,5 C -3,1 C 2,4 km/h (1 Bft)
02.01.2010 02:30 -2,0 C 2,9 C -2,5 C -2,4 C -3,1 C 0,0 C 89 % 96 % 0 % 1002,9 hPa 0,0 l/m 0,5 km/h (0 Bft) NO 45 0 min 0,0 UV-I -3,6 C -3,1 C 0,0 km/h (0 Bft)
02.01.2010 02:35 -2,0 C 2,9 C -2,5 C -2,4 C -3,1 C 0,0 C 89 % 96 % 0 % 1003,1 hPa 0,0 l/m 0,3 km/h (0 Bft) NO 45 0 min 0,0 UV-I -3,6 C -3,1 C 0,0 km/h (0 Bft)
02.01.2010 02:40 -2,0 C 2,9 C -2,5 C -2,4 C -3,1 C 0,0 C 89 % 96 % 0 % 1003,1 hPa 0,0 l/m 0,3 km/h (0 Bft) NO 45 0 min 0,0 UV-I -3,6 C -3,1 C 0,0 km/h (0 Bft)
02.01.2010 02:45 -2,0 C 2,9 C -2,5 C -2,4 C -3,2 C 0,0 C 89 % 96 % 0 % 1003,1 hPa 0,0 l/m 0,3 km/h (0 Bft) NO 45 0 min 0,0 UV-I -3,6 C -3,2 C 1,6 km/h (1 Bft)
02.01.2010 02:50 -1,9 C 2,9 C -2,5 C -2,3 C -3,1 C 0,0 C 89 % 96 % 0 % 1003,1 hPa 0,0 l/m 0,5 km/h (0 Bft) NO 45 0 min 0,0 UV-I -3,5 C -3,1 C 3,5 km/h (1 Bft)
02.01.2010 02:55 -2,0 C 2,9 C -2,5 C -2,4 C -3,2 C 0,0 C 89 % 96 % 0 % 1003,2 hPa 0,0 l/m 0,5 km/h (0 Bft) NO 45 0 min 0,0 UV-I -3,6 C -3,2 C 0,0 km/h (0 Bft)
02.01.2010 03:00 -1,9 C 2,9 C -2,5 C -2,3 C -3,2 C 0,0 C 89 % 96 % 0 % 1003,2 hPa 0,0 l/m 0,5 km/h (0 Bft) NO 45 0 min 0,0 UV-I -3,5 C -3,2 C 0,0 km/h (0 Bft)
02.01.2010 03:05 -2,0 C 2,9 C -2,5 C -2,4 C -3,2 C 0,0 C 89 % 96 % 0 % 1003,2 hPa 0,0 l/m 0,5 km/h (0 Bft) NO 45 0 min 0,0 UV-I -3,6 C -3,2 C 0,0 km/h (0 Bft)
02.01.2010 03:10 -2,0 C 2,9 C -2,5 C -2,4 C -3,2 C 0,0 C 89 % 96 % 0 % 1003,2 hPa 0,0 l/m 0,2 km/h (0 Bft) NO 45 0 min 0,0 UV-I -3,6 C -3,2 C 0,0 km/h (0 Bft)
02.01.2010 03:15 -2,0 C 2,9 C -2,6 C -2,4 C -3,2 C 0,0 C 89 % 95 % 0 % 1003,8 hPa 0,0 l/m 0,3 km/h (0 Bft) NO 45 0 min 0,0 UV-I -3,6 C -3,2 C 1,9 km/h (1 Bft)
02.01.2010 03:20 -2,0 C 2,9 C -2,5 C -2,4 C -3,2 C 0,0 C 89 % 95 % 0 % 1003,8 hPa 0,0 l/m 1,1 km/h (1 Bft) NO 45 0 min 0,0 UV-I -3,6 C -3,2 C 2,3 km/h (1 Bft)
02.01.2010 03:25 -2,0 C 2,9 C -2,5 C -2,4 C -3,2 C 0,0 C 89 % 95 % 0 % 1003,8 hPa 0,0 l/m 1,3 km/h (1 Bft) NO 45 0 min 0,0 UV-I -3,6 C -3,2 C 2,7 km/h (1 Bft)
02.01.2010 03:30 -2,0 C 2,9 C -2,5 C -2,4 C -3,2 C 0,0 C 89 % 95 % 0 % 1003,8 hPa 0,0 l/m 1,1 km/h (1 Bft) NO 45 0 min 0,0 UV-I -3,6 C -3,2 C 2,9 km/h (1 Bft)
02.01.2010 03:35 -1,9 C 2,9 C -2,5 C -2,3 C -3,2 C 0,0 C 89 % 95 % 0 % 1003,5 hPa 0,0 l/m 1,3 km/h (1 Bft) NO 45 0 min 0,0 UV-I -3,5 C -3,2 C 5,1 km/h (1 Bft)
02.01.2010 03:40 -2,1 C 2,9 C -2,5 C -2,5 C -3,2 C 0,0 C 89 % 95 % 0 % 1003,5 hPa 0,0 l/m 1,9 km/h (1 Bft) NO 45 0 min 0,0 UV-I -3,7 C -3,2 C 4,0 km/h (1 Bft)
02.01.2010 03:45 -2,1 C 2,9 C -2,5 C -2,5 C -3,2 C 0,0 C 89 % 95 % 0 % 1003,5 hPa 0,0 l/m 1,4 km/h (1 Bft) NO 45 0 min 0,0 UV-I -3,7 C -3,2 C 0,0 km/h (0 Bft)
02.01.2010 03:50 -2,1 C 2,9 C -2,7 C -2,5 C -3,2 C 0,0 C 89 % 95 % 0 % 1003,5 hPa 0,0 l/m 1,1 km/h (1 Bft) NO 45 0 min 0,0 UV-I -3,7 C -3,2 C 5,0 km/h (1 Bft)
02.01.2010 03:55 -2,1 C 2,9 C -2,7 C -2,5 C -3,2 C 0,0 C 89 % 95 % 0 % 1004,0 hPa 0,0 l/m 1,0 km/h (0 Bft) NO 45 0 min 0,0 UV-I -3,7 C -3,2 C 2,4 km/h (1 Bft)
02.01.2010 04:00 -2,1 C 2,9 C -2,7 C -2,5 C -3,2 C 0,0 C 89 % 95 % 0 % 1004,0 hPa 0,0 l/m 1,4 km/h (1 Bft) NO 45 0 min 0,0 UV-I -3,7 C -3,2 C 2,4 km/h (1 Bft)
02.01.2010 04:05 -2,1 C 2,9 C -2,7 C -2,5 C -3,2 C 0,0 C 89 % 95 % 0 % 1004,0 hPa 0,0 l/m 1,3 km/h (1 Bft) NO 45 0 min 0,0 UV-I -3,7 C -3,2 C 2,3 km/h (1 Bft)
02.01.2010 04:10 -2,1 C 2,9 C -2,7 C -2,5 C -3,2 C 0,0 C 89 % 95 % 0 % 1004,0 hPa 0,0 l/m 1,1 km/h (1 Bft) NO 45 0 min 0,0 UV-I -3,7 C -3,2 C 4,8 km/h (1 Bft)
02.01.2010 04:15 -2,1 C 2,9 C -2,7 C -2,5 C -3,3 C 0,0 C 89 % 95 % 0 % 1004,0 hPa 0,0 l/m 2,3 km/h (1 Bft) NO 45 0 min 0,0 UV-I -3,7 C -3,3 C 8,4 km/h (2 Bft)
02.01.2010 04:20 -2,1 C 2,9 C -2,7 C -2,8 C -4,1 C 0,0 C 89 % 95 % 0 % 1004,0 hPa 0,0 l/m 3,1 km/h (1 Bft) NO 45 0 min 0,0 UV-I -3,7 C -4,1 C 0,0 km/h (0 Bft)
02.01.2010 04:25 -2,1 C 2,9 C -2,7 C -2,5 C -3,2 C 0,0 C 89 % 95 % 0 % 1004,0 hPa 0,0 l/m 2,1 km/h (1 Bft) NO 45 0 min 0,0 UV-I -3,7 C -3,2 C 3,5 km/h (1 Bft)
02.01.2010 04:30 -2,1 C 2,9 C -2,7 C -2,5 C -3,2 C 0,0 C 89 % 95 % 0 % 1004,0 hPa 0,0 l/m 1,4 km/h (1 Bft) NO 45 0 min 0,0 UV-I -3,7 C -3,2 C 2,9 km/h (1 Bft)
02.01.2010 04:35 -2,1 C 2,9 C -2,7 C -2,5 C -3,2 C 0,0 C 89 % 95 % 0 % 1004,6 hPa 0,0 l/m 1,4 km/h (1 Bft) NO 45 0 min 0,0 UV-I -3,7 C -3,2 C 1,6 km/h (1 Bft)
02.01.2010 04:40 -2,1 C 2,9 C -2,7 C -2,5 C -3,2 C 0,0 C 89 % 95 % 0 % 1004,6 hPa 0,0 l/m 1,4 km/h (1 Bft) NO 45 0 min 0,0 UV-I -3,7 C -3,2 C 2,1 km/h (1 Bft)
02.01.2010 04:45 -2,1 C 2,9 C -2,8 C -2,5 C -3,3 C 0,0 C 89 % 95 % 0 % 1004,6 hPa 0,0 l/m 1,8 km/h (1 Bft) NO 45 0 min 0,0 UV-I -3,7 C -3,3 C 3,4 km/h (1 Bft)
02.01.2010 04:50 -2,1 C 2,9 C -2,8 C -2,5 C -3,3 C 0,0 C 89 % 95 % 0 % 1004,6 hPa 0,0 l/m 1,8 km/h (1 Bft) NO 45 0 min 0,0 UV-I -3,7 C -3,3 C 4,5 km/h (1 Bft)
02.01.2010 04:55 -2,1 C 2,9 C -2,8 C -2,5 C -3,3 C 0,0 C 89 % 95 % 0 % 1004,2 hPa 0,0 l/m 1,6 km/h (1 Bft) NO 45 0 min 0,0 UV-I -3,7 C -3,3 C 1,8 km/h (1 Bft)
02.01.2010 05:00 -2,3 C 2,9 C -2,8 C -2,6 C -3,3 C 0,0 C 89 % 95 % 0 % 1004,2 hPa 0,0 l/m 1,4 km/h (1 Bft) NO 45 0 min 0,0 UV-I -3,9 C -3,3 C 1,6 km/h (1 Bft)
02.01.2010 05:05 -2,1 C 2,9 C -2,8 C -2,5 C -3,3 C 0,0 C 89 % 95 % 0 % 1004,2 hPa 0,0 l/m 1,1 km/h (1 Bft) NO 45 0 min 0,0 UV-I -3,7 C -3,3 C 0,0 km/h (0 Bft)
02.01.2010 05:10 -2,3 C 2,9 C -2,8 C -2,6 C -3,3 C 0,0 C 89 % 95 % 0 % 1004,2 hPa 0,0 l/m 0,6 km/h (0 Bft) NO 45 0 min 0,0 UV-I -3,9 C -3,3 C 0,0 km/h (0 Bft)
02.01.2010 05:15 -2,1 C 2,9 C -2,8 C -2,5 C -3,3 C 0,0 C 89 % 95 % 0 % 1005,2 hPa 0,0 l/m 0,6 km/h (0 Bft) NO 45 0 min 0,0 UV-I -3,7 C -3,3 C 0,0 km/h (0 Bft)
02.01.2010 05:20 -2,1 C 2,9 C -2,8 C -2,5 C -3,3 C 0,0 C 89 % 95 % 0 % 1005,2 hPa 0,0 l/m 0,3 km/h (0 Bft) NO 45 0 min 0,0 UV-I -3,7 C -3,3 C 2,1 km/h (1 Bft)
02.01.2010 05:25 -2,1 C 2,9 C -2,8 C -2,5 C -3,3 C 0,0 C 89 % 95 % 0 % 1005,2 hPa 0,0 l/m 0,8 km/h (0 Bft) NO 45 0 min 0,0 UV-I -3,7 C -3,3 C 0,0 km/h (0 Bft)
02.01.2010 05:30 -2,1 C 2,9 C -2,8 C -2,5 C -3,3 C 0,0 C 89 % 95 % 0 % 1005,2 hPa 0,0 l/m 0,8 km/h (0 Bft) NO 45 0 min 0,0 UV-I -3,7 C -3,3 C 2,6 km/h (1 Bft)
02.01.2010 05:35 -2,1 C 2,9 C -2,8 C -2,5 C -3,3 C 0,0 C 89 % 95 % 0 % 1004,9 hPa 0,0 l/m 1,0 km/h (0 Bft) NO 45 0 min 0,0 UV-I -3,7 C -3,3 C 0,0 km/h (0 Bft)
02.01.2010 05:40 -2,1 C 2,9 C -2,8 C -2,5 C -3,3 C 0,0 C 89 % 95 % 0 % 1004,9 hPa 0,0 l/m 1,3 km/h (1 Bft) NO 45 0 min 0,0 UV-I -3,7 C -3,3 C 2,4 km/h (1 Bft)
02.01.2010 05:45 -2,3 C 2,9 C -2,7 C -2,6 C -3,3 C 0,0 C 89 % 95 % 0 % 1004,9 hPa 0,0 l/m 1,1 km/h (1 Bft) NO 45 0 min 0,0 UV-I -3,9 C -3,3 C 1,8 km/h (1 Bft)
02.01.2010 05:50 -2,3 C 2,9 C -2,9 C -2,6 C -3,3 C 0,0 C 89 % 95 % 0 % 1004,9 hPa 0,0 l/m 1,1 km/h (1 Bft) NO 45 0 min 0,0 UV-I -3,9 C -3,3 C 2,1 km/h (1 Bft)
02.01.2010 05:55 -2,3 C 2,9 C -2,9 C -2,6 C -3,3 C 0,0 C 89 % 95 % 0 % 1005,4 hPa 0,0 l/m 1,4 km/h (1 Bft) NO 45 0 min 0,0 UV-I -3,9 C -3,3 C 3,2 km/h (1 Bft)
02.01.2010 06:00 -2,3 C 2,9 C -2,9 C -2,6 C -3,3 C 0,0 C 89 % 95 % 0 % 1005,4 hPa 0,0 l/m 1,8 km/h (1 Bft) NO 45 0 min 0,0 UV-I -3,9 C -3,3 C 0,0 km/h (0 Bft)
02.01.2010 06:05 -2,3 C 2,9 C -2,9 C -2,7 C -3,4 C 0,0 C 90 % 95 % 0 % 1005,4 hPa 0,0 l/m 1,6 km/h (1 Bft) NO 45 0 min 0,0 UV-I -3,7 C -3,4 C 2,6 km/h (1 Bft)
02.01.2010 06:10 -2,3 C 2,9 C -2,7 C -2,6 C -3,3 C 0,0 C 90 % 95 % 0 % 1005,4 hPa 0,0 l/m 1,1 km/h (1 Bft) NO 45 0 min 0,0 UV-I -3,7 C -3,3 C 2,3 km/h (1 Bft)
02.01.2010 06:15 -2,3 C 2,9 C -2,9 C -2,6 C -3,3 C 0,0 C 90 % 95 % 0 % 1005,7 hPa 0,0 l/m 1,3 km/h (1 Bft) NO 45 0 min 0,0 UV-I -3,7 C -3,3 C 4,2 km/h (1 Bft)
02.01.2010 06:20 -2,3 C 2,9 C -2,9 C -2,6 C -3,3 C 0,0 C 90 % 95 % 0 % 1005,7 hPa 0,0 l/m 1,9 km/h (1 Bft) NO 45 0 min 0,0 UV-I -3,7 C -3,3 C 3,2 km/h (1 Bft)
02.01.2010 06:25 -2,3 C 2,9 C -2,9 C -2,7 C -3,5 C 0,0 C 90 % 95 % 0 % 1005,7 hPa 0,0 l/m 2,3 km/h (1 Bft) NO 45 0 min 0,0 UV-I -3,7 C -3,5 C 3,9 km/h (1 Bft)
02.01.2010 06:30 -2,4 C 2,9 C -2,9 C -2,8 C -3,7 C 0,0 C 90 % 95 % 0 % 1005,7 hPa 0,0 l/m 2,4 km/h (1 Bft) NO 45 0 min 0,0 UV-I -3,8 C -3,7 C 3,4 km/h (1 Bft)
02.01.2010 06:35 -2,4 C 2,9 C -3,0 C -2,8 C -3,6 C 0,0 C 90 % 95 % 0 % 1005,9 hPa 0,0 l/m 2,3 km/h (1 Bft) NO 45 0 min 0,0 UV-I -3,8 C -3,6 C 2,4 km/h (1 Bft)
02.01.2010 06:40 -2,5 C 2,9 C -2,9 C -2,9 C -3,6 C 0,0 C 89 % 95 % 0 % 1005,9 hPa 0,0 l/m 2,1 km/h (1 Bft) NO 45 0 min 0,0 UV-I -4,1 C -3,6 C 3,5 km/h (1 Bft)
02.01.2010 06:45 -2,5 C 2,9 C -3,1 C -3,1 C -4,2 C 0,0 C 89 % 95 % 0 % 1005,9 hPa 0,0 l/m 2,6 km/h (1 Bft) NO 45 0 min 0,0 UV-I -4,1 C -4,2 C 4,5 km/h (1 Bft)
02.01.2010 06:50 -2,5 C 2,9 C -3,1 C -3,0 C -4,0 C 0,0 C 89 % 95 % 0 % 1005,9 hPa 0,0 l/m 2,4 km/h (1 Bft) NO 45 0 min 0,0 UV-I -4,1 C -4,0 C 3,5 km/h (1 Bft)
02.01.2010 06:55 -2,5 C 2,9 C -3,1 C -2,9 C -3,8 C 0,0 C 89 % 95 % 0 % 1005,9 hPa 0,0 l/m 2,3 km/h (1 Bft) NO 45 0 min 0,0 UV-I -4,1 C -3,8 C 2,4 km/h (1 Bft)
02.01.2010 07:00 -2,5 C 2,9 C -3,1 C -3,1 C -4,3 C 0,0 C 89 % 95 % 0 % 1005,9 hPa 0,0 l/m 2,7 km/h (1 Bft) NO 45 0 min 0,0 UV-I -4,1 C -4,3 C 3,9 km/h (1 Bft)
02.01.2010 07:05 -2,5 C 2,7 C -3,1 C -3,2 C -4,7 C 0,0 C 89 % 94 % 0 % 1005,9 hPa 0,0 l/m 3,2 km/h (1 Bft) NO 45 0 min 0,0 UV-I -4,1 C -4,7 C 3,9 km/h (1 Bft)
02.01.2010 07:10 -2,5 C 2,9 C -3,1 C -3,2 C -4,6 C 0,0 C 89 % 94 % 0 % 1005,9 hPa 0,0 l/m 3,1 km/h (1 Bft) NO 45 0 min 0,0 UV-I -4,1 C -4,6 C 5,0 km/h (1 Bft)
02.01.2010 07:15 -2,5 C 2,7 C -3,1 C -3,2 C -4,7 C 0,0 C 89 % 95 % 0 % 1006,1 hPa 0,0 l/m 3,2 km/h (1 Bft) NO 45 0 min 0,0 UV-I -4,1 C -4,7 C 3,1 km/h (1 Bft)
02.01.2010 07:20 -2,5 C 2,7 C -3,1 C -3,2 C -4,6 C 0,0 C 89 % 95 % 0 % 1006,1 hPa 0,0 l/m 3,1 km/h (1 Bft) NO 45 0 min 0,0 UV-I -4,1 C -4,6 C 3,2 km/h (1 Bft)
02.01.2010 07:25 -2,6 C 2,9 C -3,1 C -3,1 C -4,0 C 0,0 C 89 % 95 % 0 % 1006,1 hPa 0,0 l/m 2,4 km/h (1 Bft) NO 45 0 min 0,0 UV-I -4,2 C -4,0 C 2,7 km/h (1 Bft)
02.01.2010 07:30 -2,5 C 2,9 C -3,1 C -3,0 C -4,0 C 0,0 C 89 % 95 % 0 % 1006,1 hPa 0,0 l/m 2,4 km/h (1 Bft) NO 45 0 min 0,0 UV-I -4,1 C -4,0 C 1,9 km/h (1 Bft)
02.01.2010 07:35 -2,5 C 2,9 C -3,1 C -3,0 C -4,0 C 0,0 C 89 % 95 % 0 % 1006,8 hPa 0,0 l/m 2,4 km/h (1 Bft) NO 45 0 min 0,0 UV-I -4,1 C -4,0 C 4,3 km/h (1 Bft)
02.01.2010 07:40 -2,5 C 2,9 C -3,1 C -2,9 C -3,8 C 0,0 C 89 % 95 % 0 % 1006,8 hPa 0,0 l/m 2,3 km/h (1 Bft) NO 45 0 min 0,0 UV-I -4,1 C -3,8 C 1,6 km/h (1 Bft)
02.01.2010 07:45 -2,5 C 2,9 C -3,1 C -2,9 C -3,8 C 0,0 C 89 % 95 % 0 % 1006,8 hPa 0,0 l/m 2,3 km/h (1 Bft) NO 45 0 min 0,0 UV-I -4,1 C -3,8 C 3,7 km/h (1 Bft)
02.01.2010 07:50 -2,6 C 2,9 C -3,1 C -3,0 C -3,7 C 0,0 C 89 % 95 % 0 % 1006,8 hPa 0,0 l/m 2,1 km/h (1 Bft) NO 45 0 min 0,0 UV-I -4,2 C -3,7 C 3,9 km/h (1 Bft)
02.01.2010 07:55 -2,5 C 2,7 C -3,1 C -2,9 C -3,8 C 0,0 C 89 % 94 % 0 % 1006,8 hPa 0,0 l/m 2,3 km/h (1 Bft) NO 45 0 min 0,0 UV-I -4,1 C -3,8 C 1,8 km/h (1 Bft)
02.01.2010 08:00 -2,5 C 2,9 C -3,2 C -3,1 C -4,4 C 0,0 C 89 % 95 % 0 % 1006,8 hPa 0,0 l/m 2,9 km/h (1 Bft) NO 45 0 min 0,0 UV-I -4,1 C -4,4 C 2,3 km/h (1 Bft)
02.01.2010 08:05 -2,5 C 2,7 C -3,3 C -3,1 C -4,3 C 0,0 C 89 % 94 % 0 % 1006,8 hPa 0,0 l/m 2,7 km/h (1 Bft) NO 45 0 min 0,0 UV-I -4,1 C -4,3 C 3,2 km/h (1 Bft)
02.01.2010 08:10 -2,5 C 2,7 C -3,1 C -3,1 C -4,2 C 0,0 C 89 % 95 % 0 % 1006,8 hPa 0,0 l/m 2,6 km/h (1 Bft) NO 45 0 min 0,0 UV-I -4,1 C -4,2 C 2,7 km/h (1 Bft)
02.01.2010 08:15 -2,7 C 2,7 C -3,3 C -3,3 C -4,4 C 0,0 C 89 % 95 % 0 % 1007,1 hPa 0,0 l/m 2,7 km/h (1 Bft) NO 45 0 min 0,0 UV-I -4,3 C -4,4 C 3,1 km/h (1 Bft)
02.01.2010 08:20 -2,5 C 2,7 C -3,3 C -2,9 C -3,8 C 0,0 C 89 % 95 % 0 % 1007,1 hPa 0,0 l/m 2,1 km/h (1 Bft) NO 45 0 min 0,0 UV-I -4,1 C -3,8 C 2,6 km/h (1 Bft)
02.01.2010 08:25 -2,5 C 2,7 C -3,3 C -2,9 C -3,8 C 0,0 C 89 % 94 % 0 % 1007,1 hPa 0,0 l/m 1,3 km/h (1 Bft) NO 45 0 min 0,0 UV-I -4,1 C -3,8 C 1,6 km/h (1 Bft)
02.01.2010 08:30 -2,5 C 2,7 C -3,3 C -2,9 C -3,8 C 0,0 C 89 % 94 % 0 % 1007,1 hPa 0,0 l/m 1,3 km/h (1 Bft) NO 45 0 min 0,0 UV-I -4,1 C -3,8 C 0,0 km/h (0 Bft)
02.01.2010 08:35 -2,5 C 2,7 C -3,3 C -2,9 C -3,8 C 0,0 C 89 % 94 % 0 % 1007,1 hPa 0,0 l/m 1,3 km/h (1 Bft) NO 45 0 min 0,0 UV-I -4,1 C -3,8 C 1,6 km/h (1 Bft)
02.01.2010 08:40 -2,5 C 2,7 C -3,3 C -2,9 C -3,7 C 0,0 C 89 % 94 % 0 % 1007,1 hPa 0,0 l/m 1,6 km/h (1 Bft) NO 45 0 min 0,0 UV-I -4,1 C -3,7 C 4,5 km/h (1 Bft)
02.01.2010 08:45 -2,5 C 2,7 C -3,3 C -2,9 C -3,7 C 0,0 C 89 % 94 % 0 % 1007,1 hPa 0,0 l/m 1,6 km/h (1 Bft) NO 45 0 min 0,0 UV-I -4,1 C -3,7 C 5,8 km/h (2 Bft)
02.01.2010 08:50 -2,6 C 2,7 C -3,3 C -3,0 C -3,7 C 0,0 C 89 % 94 % 0 % 1007,1 hPa 0,0 l/m 1,4 km/h (1 Bft) NO 45 0 min 0,0 UV-I -4,2 C -3,7 C 2,9 km/h (1 Bft)
02.01.2010 08:55 -2,5 C 2,7 C -3,3 C -2,9 C -3,7 C 0,0 C 89 % 94 % 0 % 1007,9 hPa 0,0 l/m 1,6 km/h (1 Bft) NO 45 0 min 0,0 UV-I -4,1 C -3,7 C 3,2 km/h (1 Bft)
02.01.2010 09:00 -2,5 C 2,7 C -3,3 C -2,9 C -3,6 C 0,0 C 89 % 94 % 0 % 1007,9 hPa 0,0 l/m 1,6 km/h (1 Bft) NO 45 0 min 0,0 UV-I -4,1 C -3,6 C 2,7 km/h (1 Bft)
02.01.2010 09:05 -2,5 C 2,7 C -3,2 C -2,9 C -3,6 C 0,0 C 89 % 94 % 0 % 1007,9 hPa 0,0 l/m 1,1 km/h (1 Bft) NO 45 0 min 0,0 UV-I -4,1 C -3,6 C 2,7 km/h (1 Bft)
02.01.2010 09:10 -2,5 C 2,7 C -3,2 C -2,9 C -3,6 C 0,0 C 89 % 94 % 0 % 1007,9 hPa 0,0 l/m 1,3 km/h (1 Bft) NO 45 0 min 0,0 UV-I -4,1 C -3,6 C 2,1 km/h (1 Bft)
02.01.2010 09:15 -2,5 C 2,7 C -3,2 C -2,9 C -3,6 C 0,0 C 89 % 94 % 0 % 1007,9 hPa 0,0 l/m 1,4 km/h (1 Bft) NO 45 0 min 0,0 UV-I -4,1 C -3,6 C 0,0 km/h (0 Bft)
02.01.2010 09:20 -2,5 C 2,7 C -3,2 C -2,8 C -3,5 C 0,0 C 89 % 94 % 0 % 1007,9 hPa 0,0 l/m 1,1 km/h (1 Bft) NO 45 0 min 0,0 UV-I -4,1 C -3,5 C 2,3 km/h (1 Bft)
02.01.2010 09:25 -2,5 C 2,7 C -3,1 C -2,8 C -3,5 C 0,0 C 89 % 95 % 0 % 1007,9 hPa 0,0 l/m 1,0 km/h (0 Bft) NO 45 0 min 0,0 UV-I -4,1 C -3,5 C 3,4 km/h (1 Bft)
02.01.2010 09:30 -2,5 C 2,7 C -3,1 C -2,8 C -3,4 C 0,0 C 89 % 94 % 0 % 1007,9 hPa 0,0 l/m 1,3 km/h (1 Bft) NO 45 0 min 0,0 UV-I -4,1 C -3,4 C 2,1 km/h (1 Bft)
02.01.2010 09:35 -2,4 C 2,9 C -2,9 C -2,7 C -3,4 C 0,0 C 89 % 95 % 0 % 1008,8 hPa 0,0 l/m 1,4 km/h (1 Bft) NO 45 0 min 0,0 UV-I -4,0 C -3,4 C 2,4 km/h (1 Bft)
02.01.2010 09:40 -2,3 C 2,7 C -2,9 C -2,6 C -3,3 C 0,0 C 89 % 95 % 0 % 1008,8 hPa 0,0 l/m 1,6 km/h (1 Bft) NO 45 0 min 0,0 UV-I -3,9 C -3,3 C 2,6 km/h (1 Bft)
02.01.2010 09:45 -2,3 C 2,7 C -2,9 C -2,6 C -3,3 C 0,0 C 89 % 94 % 0 % 1008,8 hPa 0,0 l/m 2,3 km/h (1 Bft) NO 45 0 min 0,0 UV-I -3,9 C -3,3 C 3,1 km/h (1 Bft)
02.01.2010 09:50 -2,1 C 2,7 C -2,9 C -2,5 C -3,2 C 0,0 C 89 % 95 % 0 % 1008,8 hPa 0,0 l/m 1,8 km/h (1 Bft) NO 45 0 min 0,0 UV-I -3,7 C -3,2 C 2,1 km/h (1 Bft)
02.01.2010 09:55 -2,1 C 2,7 C -2,9 C -2,5 C -3,2 C 0,0 C 89 % 94 % 0 % 1008,6 hPa 0,0 l/m 1,6 km/h (1 Bft) NO 45 0 min 0,0 UV-I -3,7 C -3,2 C 5,3 km/h (1 Bft)
02.01.2010 10:00 -2,2 C 2,7 C -2,9 C -2,5 C -3,2 C 0,0 C 89 % 94 % 0 % 1008,6 hPa 0,0 l/m 1,4 km/h (1 Bft) NO 45 0 min 0,0 UV-I -3,8 C -3,2 C 1,9 km/h (1 Bft)
02.01.2010 10:10 -2,1 C 2,7 C -2,9 C -2,4 C -3,0 C 0,0 C 89 % 94 % 0 % 1008,6 hPa 0,0 l/m 1,3 km/h (1 Bft) NO 45 0 min 0,0 UV-I -3,7 C -3,0 C 3,5 km/h (1 Bft)
02.01.2010 10:15 -1,9 C 2,7 C -2,8 C -2,2 C -2,9 C 0,0 C 89 % 94 % 0 % 1009,4 hPa 0,0 l/m 1,9 km/h (1 Bft) NO 45 0 min 0,0 UV-I -3,5 C -2,9 C 4,7 km/h (1 Bft)
02.01.2010 10:20 -2,0 C 2,9 C -2,8 C -2,3 C -2,8 C 0,0 C 89 % 94 % 0 % 1009,4 hPa 0,0 l/m 1,9 km/h (1 Bft) NO 45 0 min 0,0 UV-I -3,6 C -2,8 C 3,4 km/h (1 Bft)
02.01.2010 10:25 -1,9 C 2,8 C -2,7 C -2,2 C -2,7 C 0,0 C 89 % 94 % 0 % 1009,4 hPa 0,0 l/m 1,9 km/h (1 Bft) NO 45 0 min 0,0 UV-I -3,5 C -2,7 C 2,7 km/h (1 Bft)
02.01.2010 10:30 -1,9 C 2,8 C -2,8 C -2,1 C -2,6 C 0,0 C 89 % 94 % 0 % 1009,4 hPa 0,0 l/m 2,1 km/h (1 Bft) NO 45 0 min 0,0 UV-I -3,5 C -2,6 C 2,4 km/h (1 Bft)
02.01.2010 10:35 -1,7 C 2,8 C -2,5 C -2,0 C -2,6 C 0,0 C 89 % 94 % 0 % 1009,2 hPa 0,0 l/m 1,8 km/h (1 Bft) NO 45 0 min 0,0 UV-I -3,3 C -2,6 C 1,9 km/h (1 Bft)
02.01.2010 10:40 -1,8 C 2,8 C -2,7 C -2,1 C -2,8 C 0,0 C 89 % 94 % 0 % 1009,2 hPa 0,0 l/m 2,4 km/h (1 Bft) NO 45 0 min 0,0 UV-I -3,4 C -2,8 C 1,9 km/h (1 Bft)
02.01.2010 10:45 -1,7 C 2,8 C -2,5 C -2,2 C -3,2 C 0,0 C 89 % 94 % 0 % 1009,2 hPa 0,0 l/m 2,9 km/h (1 Bft) NO 45 0 min 0,0 UV-I -3,3 C -3,2 C 4,8 km/h (1 Bft)
02.01.2010 10:50 -1,7 C 2,8 C -2,6 C -2,2 C -3,1 C 0,0 C 89 % 94 % 0 % 1009,2 hPa 0,0 l/m 2,7 km/h (1 Bft) NO 45 0 min 0,0 UV-I -3,3 C -3,1 C 3,4 km/h (1 Bft)
02.01.2010 10:55 -1,7 C 2,8 C -2,5 C -2,0 C -2,6 C 0,0 C 89 % 94 % 0 % 1009,6 hPa 0,0 l/m 2,3 km/h (1 Bft) NO 45 0 min 0,0 UV-I -3,3 C -2,6 C 1,9 km/h (1 Bft)
02.01.2010 11:00 -1,5 C 2,8 C -2,5 C -1,8 C -2,3 C 0,0 C 89 % 94 % 0 % 1009,6 hPa 0,0 l/m 2,3 km/h (1 Bft) NO 45 0 min 0,0 UV-I -3,1 C -2,3 C 1,6 km/h (1 Bft)
02.01.2010 11:10 -1,3 C 2,8 C -2,4 C -1,7 C -2,4 C 0,0 C 88 % 94 % 0 % 1009,6 hPa 0,0 l/m 2,4 km/h (1 Bft) NO 45 0 min 0,0 UV-I -3,0 C -2,4 C 3,9 km/h (1 Bft)
02.01.2010 11:15 -1,3 C 2,8 C -2,3 C -1,6 C -2,3 C 0,0 C 89 % 94 % 0 % 1010,5 hPa 0,0 l/m 2,4 km/h (1 Bft) NO 45 0 min 0,0 UV-I -2,9 C -2,3 C 3,4 km/h (1 Bft)
02.01.2010 11:20 -1,1 C 2,8 C -2,3 C -1,4 C -2,0 C 0,0 C 88 % 94 % 0 % 1010,5 hPa 0,0 l/m 1,9 km/h (1 Bft) NO 45 0 min 0,0 UV-I -2,8 C -2,0 C 3,4 km/h (1 Bft)
02.01.2010 11:25 -1,1 C 2,8 C -1,9 C -1,3 C -1,8 C 0,0 C 88 % 94 % 0 % 1010,5 hPa 0,0 l/m 1,6 km/h (1 Bft) NO 45 0 min 0,0 UV-I -2,8 C -1,8 C 2,6 km/h (1 Bft)
02.01.2010 11:30 -0,9 C 2,8 C -2,1 C -1,2 C -1,7 C 0,0 C 88 % 94 % 0 % 1010,5 hPa 0,0 l/m 1,9 km/h (1 Bft) NO 45 0 min 0,0 UV-I -2,6 C -1,7 C 2,3 km/h (1 Bft)
02.01.2010 11:35 -0,9 C 2,8 C -1,9 C -1,1 C -1,6 C 0,0 C 88 % 94 % 0 % 1010,4 hPa 0,0 l/m 1,9 km/h (1 Bft) NO 45 0 min 0,0 UV-I -2,6 C -1,6 C 2,4 km/h (1 Bft)
02.01.2010 11:40 -0,7 C 2,8 C -1,7 C -0,9 C -1,4 C 0,0 C 88 % 94 % 0 % 1010,4 hPa 0,0 l/m 1,6 km/h (1 Bft) NO 45 0 min 0,0 UV-I -2,4 C -1,4 C 3,1 km/h (1 Bft)
02.01.2010 11:45 -0,6 C 2,8 C -1,7 C -0,8 C -1,2 C 0,0 C 88 % 94 % 0 % 1010,4 hPa 0,0 l/m 1,8 km/h (1 Bft) NO 45 0 min 0,0 UV-I -2,3 C -1,2 C 3,1 km/h (1 Bft)
02.01.2010 11:50 -0,5 C 2,8 C -1,8 C -0,7 C -1,2 C 0,0 C 88 % 94 % 0 % 1010,4 hPa 0,0 l/m 1,4 km/h (1 Bft) NO 45 0 min 0,0 UV-I -2,2 C -1,2 C 0,0 km/h (0 Bft)
02.01.2010 11:55 -0,5 C 2,8 C -1,7 C -0,7 C -1,1 C 0,0 C 88 % 94 % 0 % 1011,1 hPa 0,0 l/m 1,3 km/h (1 Bft) NO 45 0 min 0,0 UV-I -2,2 C -1,1 C 3,5 km/h (1 Bft)
02.01.2010 12:00 -0,4 C 2,8 C -1,7 C -0,6 C -1,0 C 0,0 C 87 % 93 % 0 % 1011,1 hPa 0,0 l/m 0,8 km/h (0 Bft) NO 45 0 min 0,0 UV-I -2,3 C -1,0 C 2,9 km/h (1 Bft)
02.01.2010 12:10 -0,3 C 2,8 C -1,7 C -0,6 C -1,1 C 0,0 C 87 % 94 % 0 % 1011,1 hPa 0,0 l/m 1,8 km/h (1 Bft) NO 45 0 min 0,0 UV-I -2,2 C -1,1 C 2,6 km/h (1 Bft)
02.01.2010 12:15 -0,3 C 2,8 C -1,6 C -0,5 C -1,0 C 0,0 C 87 % 93 % 0 % 1011,1 hPa 0,0 l/m 1,8 km/h (1 Bft) NO 45 0 min 0,0 UV-I -2,2 C -1,0 C 1,6 km/h (1 Bft)
02.01.2010 12:20 -0,1 C 2,8 C -1,6 C -0,4 C -0,9 C 0,0 C 87 % 93 % 0 % 1011,1 hPa 0,0 l/m 1,6 km/h (1 Bft) NO 45 0 min 0,0 UV-I -2,0 C -0,9 C 2,6 km/h (1 Bft)
02.01.2010 12:25 -0,1 C 2,8 C -1,5 C -0,3 C -0,8 C 0,0 C 87 % 93 % 0 % 1011,1 hPa 0,0 l/m 1,9 km/h (1 Bft) NO 45 0 min 0,0 UV-I -2,0 C -0,8 C 3,2 km/h (1 Bft)
02.01.2010 12:30 -0,3 C 2,8 C -1,5 C -0,5 C -1,0 C 0,0 C 87 % 93 % 0 % 1011,1 hPa 0,0 l/m 2,1 km/h (1 Bft) NO 45 0 min 0,0 UV-I -2,2 C -1,0 C 5,5 km/h (1 Bft)
02.01.2010 12:35 -0,3 C 2,8 C -1,7 C -0,6 C -1,1 C 0,0 C 87 % 93 % 0 % 1011,1 hPa 0,0 l/m 2,3 km/h (1 Bft) NO 45 0 min 0,0 UV-I -2,2 C -1,1 C 5,0 km/h (1 Bft)
02.01.2010 12:40 -0,4 C 2,8 C -1,7 C -0,8 C -1,6 C 0,0 C 87 % 93 % 0 % 1011,1 hPa 0,0 l/m 2,6 km/h (1 Bft) NO 45 0 min 0,0 UV-I -2,3 C -1,6 C 3,1 km/h (1 Bft)
02.01.2010 12:45 -0,4 C 2,8 C -1,7 C -0,7 C -1,4 C 0,0 C 87 % 94 % 0 % 1011,1 hPa 0,0 l/m 2,1 km/h (1 Bft) NO 45 0 min 0,0 UV-I -2,3 C -1,4 C 1,8 km/h (1 Bft)
02.01.2010 12:50 -0,3 C 2,8 C -1,7 C -0,6 C -1,3 C 0,0 C 87 % 94 % 0 % 1011,1 hPa 0,0 l/m 1,9 km/h (1 Bft) NO 45 0 min 0,0 UV-I -2,2 C -1,3 C 5,3 km/h (1 Bft)
02.01.2010 12:55 -0,3 C 2,8 C -1,7 C -0,6 C -1,3 C 0,0 C 87 % 94 % 0 % 1012,1 hPa 0,0 l/m 1,6 km/h (1 Bft) NO 45 0 min 0,0 UV-I -2,2 C -1,3 C 2,3 km/h (1 Bft)
02.01.2010 13:00 -0,3 C 2,8 C -1,7 C -0,6 C -1,2 C 0,0 C 87 % 94 % 0 % 1012,1 hPa 0,0 l/m 2,3 km/h (1 Bft) NO 45 0 min 0,0 UV-I -2,2 C -1,2 C 3,4 km/h (1 Bft)
02.01.2010 13:10 -0,1 C 2,8 C -1,5 C -0,6 C -1,6 C 0,0 C 87 % 94 % 0 % 1012,1 hPa 0,0 l/m 2,6 km/h (1 Bft) NO 45 0 min 0,0 UV-I -2,0 C -1,6 C 2,9 km/h (1 Bft)
02.01.2010 13:15 -0,1 C 2,8 C -1,5 C -0,5 C -1,2 C 0,0 C 87 % 95 % 0 % 1012,4 hPa 0,0 l/m 2,1 km/h (1 Bft) NO 45 0 min 0,0 UV-I -2,0 C -1,2 C 1,8 km/h (1 Bft)
02.01.2010 13:20 -0,3 C 2,8 C -1,5 C -0,6 C -1,2 C 0,0 C 86 % 95 % 0 % 1012,4 hPa 0,0 l/m 1,9 km/h (1 Bft) NO 45 0 min 0,0 UV-I -2,3 C -1,2 C 2,4 km/h (1 Bft)
02.01.2010 13:25 -0,3 C 2,8 C -1,5 C -0,7 C -1,6 C 0,0 C 87 % 95 % 0 % 1012,4 hPa 0,0 l/m 2,6 km/h (1 Bft) NO 45 0 min 0,0 UV-I -2,2 C -1,6 C 4,0 km/h (1 Bft)
02.01.2010 13:30 -0,3 C 2,8 C -1,5 C -0,8 C -1,9 C 0,0 C 87 % 95 % 0 % 1012,4 hPa 0,0 l/m 3,1 km/h (1 Bft) NO 45 0 min 0,0 UV-I -2,2 C -1,9 C 2,9 km/h (1 Bft)
02.01.2010 13:35 -0,3 C 2,8 C -1,5 C -0,6 C -1,3 C 0,0 C 87 % 95 % 0 % 1012,4 hPa 0,0 l/m 2,3 km/h (1 Bft) NO 45 0 min 0,0 UV-I -2,2 C -1,3 C 2,9 km/h (1 Bft)
02.01.2010 13:40 -0,4 C 2,7 C -1,6 C -0,7 C -1,3 C 0,0 C 87 % 95 % 0 % 1012,4 hPa 0,0 l/m 2,3 km/h (1 Bft) NO 45 0 min 0,0 UV-I -2,3 C -1,3 C 6,6 km/h (2 Bft)
02.01.2010 13:45 -0,5 C 2,8 C -1,7 C -1,0 C -2,0 C 0,0 C 87 % 95 % 0 % 1012,4 hPa 0,0 l/m 2,9 km/h (1 Bft) NO 45 0 min 0,0 UV-I -2,4 C -2,0 C 3,4 km/h (1 Bft)
02.01.2010 13:50 -0,5 C 2,8 C -1,7 C -0,9 C -1,6 C 0,0 C 87 % 95 % 0 % 1012,4 hPa 0,0 l/m 2,4 km/h (1 Bft) NO 45 0 min 0,0 UV-I -2,4 C -1,6 C 4,5 km/h (1 Bft)
02.01.2010 13:55 -0,3 C 2,8 C -1,7 C -0,7 C -1,5 C 0,0 C 87 % 95 % 0 % 1012,9 hPa 0,0 l/m 1,6 km/h (1 Bft) NO 45 0 min 0,0 UV-I -2,2 C -1,5 C 2,9 km/h (1 Bft)
02.01.2010 14:00 -0,5 C 2,8 C -1,7 C -0,9 C -1,6 C 0,0 C 87 % 95 % 0 % 1012,9 hPa 0,0 l/m 1,9 km/h (1 Bft) NO 45 0 min 0,0 UV-I -2,4 C -1,6 C 4,7 km/h (1 Bft)
02.01.2010 14:10 -0,5 C 2,8 C -1,6 C -1,1 C -2,4 C 0,0 C 87 % 95 % 0 % 1012,9 hPa 0,0 l/m 3,1 km/h (1 Bft) NO 45 0 min 0,0 UV-I -2,4 C -2,4 C 6,3 km/h (2 Bft)
02.01.2010 14:15 -0,7 C 2,8 C -1,7 C -1,4 C -2,7 C 0,0 C 87 % 95 % 0 % 1013,3 hPa 0,0 l/m 3,2 km/h (1 Bft) NO 45 0 min 0,0 UV-I -2,6 C -2,7 C 0,0 km/h (0 Bft)
02.01.2010 14:20 -0,8 C 2,8 C -1,7 C -1,3 C -2,3 C 0,0 C 87 % 95 % 0 % 1013,3 hPa 0,0 l/m 2,6 km/h (1 Bft) NO 45 0 min 0,0 UV-I -2,7 C -2,3 C 3,7 km/h (1 Bft)
02.01.2010 14:25 -0,9 C 2,8 C -1,7 C -1,5 C -2,6 C 0,0 C 87 % 95 % 0 % 1013,3 hPa 0,0 l/m 2,9 km/h (1 Bft) NO 45 0 min 0,0 UV-I -2,8 C -2,6 C 4,5 km/h (1 Bft)
02.01.2010 14:30 -0,9 C 2,8 C -1,7 C -1,7 C -3,2 C 0,0 C 87 % 95 % 0 % 1013,3 hPa 0,0 l/m 3,9 km/h (1 Bft) NO 45 0 min 0,0 UV-I -2,8 C -3,2 C 3,4 km/h (1 Bft)
02.01.2010 14:35 -0,9 C 2,8 C -1,7 C -1,6 C -3,1 C 0,0 C 88 % 95 % 0 % 1013,9 hPa 0,0 l/m 3,7 km/h (1 Bft) NO 45 0 min 0,0 UV-I -2,6 C -3,1 C 10,8 km/h (2 Bft)
02.01.2010 14:40 -0,9 C 2,8 C -1,7 C -1,5 C -2,7 C 0,0 C 88 % 95 % 0 % 1013,9 hPa 0,0 l/m 3,1 km/h (1 Bft) NO 45 0 min 0,0 UV-I -2,6 C -2,7 C 1,8 km/h (1 Bft)
02.01.2010 14:45 -0,9 C 2,8 C -1,7 C -1,6 C -3,0 C 0,0 C 88 % 95 % 0 % 1013,9 hPa 0,0 l/m 3,4 km/h (1 Bft) NO 45 0 min 0,0 UV-I -2,6 C -3,0 C 6,3 km/h (2 Bft)
02.01.2010 14:50 -1,0 C 2,8 C -1,9 C -1,6 C -2,9 C 0,0 C 88 % 95 % 0 % 1013,9 hPa 0,0 l/m 3,2 km/h (1 Bft) NO 45 0 min 0,0 UV-I -2,7 C -2,9 C 2,9 km/h (1 Bft)
02.01.2010 14:55 -0,9 C 2,8 C -1,9 C -1,5 C -2,7 C 0,0 C 88 % 95 % 0 % 1014,4 hPa 0,0 l/m 2,9 km/h (1 Bft) NO 45 0 min 0,0 UV-I -2,6 C -2,7 C 3,9 km/h (1 Bft)
02.01.2010 15:00 -1,1 C 2,8 C -1,9 C -1,7 C -2,8 C 0,0 C 88 % 96 % 0 % 1014,4 hPa 0,0 l/m 2,9 km/h (1 Bft) NO 45 0 min 0,0 UV-I -2,8 C -2,8 C 2,9 km/h (1 Bft)
02.01.2010 15:10 -1,3 C 2,8 C -2,0 C -2,0 C -3,4 C 0,0 C 88 % 96 % 0 % 1014,4 hPa 0,0 l/m 3,5 km/h (1 Bft) NO 45 0 min 0,0 UV-I -3,0 C -3,4 C 7,6 km/h (2 Bft)
02.01.2010 15:15 -1,3 C 2,7 C -2,0 C -2,1 C -3,6 C 0,0 C 88 % 96 % 0 % 1014,4 hPa 0,0 l/m 3,5 km/h (1 Bft) NO 45 0 min 0,0 UV-I -3,0 C -3,6 C 2,9 km/h (1 Bft)
02.01.2010 15:20 -1,4 C 2,8 C -2,0 C -2,2 C -3,8 C 0,0 C 88 % 96 % 0 % 1014,4 hPa 0,0 l/m 3,7 km/h (1 Bft) NO 45 0 min 0,0 UV-I -3,1 C -3,8 C 5,1 km/h (1 Bft)
02.01.2010 15:25 -1,5 C 2,7 C -2,1 C -2,2 C -3,6 C 0,0 C 88 % 96 % 0 % 1014,4 hPa 0,0 l/m 3,4 km/h (1 Bft) NO 45 0 min 0,0 UV-I -3,2 C -3,6 C 6,6 km/h (2 Bft)
02.01.2010 15:30 -1,5 C 2,7 C -2,1 C -2,4 C -4,2 C 0,0 C 88 % 95 % 0 % 1014,4 hPa 0,0 l/m 4,3 km/h (1 Bft) NO 45 0 min 0,0 UV-I -3,2 C -4,2 C 8,4 km/h (2 Bft)
02.01.2010 15:35 -1,6 C 2,7 C -2,4 C -2,6 C -4,5 C 0,0 C 88 % 95 % 0 % 1014,5 hPa 0,0 l/m 4,7 km/h (1 Bft) NO 45 0 min 0,0 UV-I -3,3 C -6,5 C 13,2 km/h (3 Bft)
02.01.2010 15:40 -1,7 C 2,7 C -2,5 C -2,6 C -4,3 C 0,0 C 89 % 95 % 0 % 1014,5 hPa 0,0 l/m 4,2 km/h (1 Bft) NO 45 0 min 0,0 UV-I -3,3 C -4,3 C 4,5 km/h (1 Bft)
02.01.2010 15:45 -1,7 C 2,7 C -2,5 C -2,4 C -3,9 C 0,0 C 89 % 95 % 0 % 1014,5 hPa 0,0 l/m 3,4 km/h (1 Bft) NO 45 0 min 0,0 UV-I -3,3 C -3,9 C 3,5 km/h (1 Bft)
02.01.2010 15:50 -1,8 C 2,7 C -2,6 C -2,5 C -3,9 C 0,0 C 89 % 95 % 0 % 1014,5 hPa 0,0 l/m 3,2 km/h (1 Bft) NO 45 0 min 0,0 UV-I -3,4 C -3,9 C 4,8 km/h (1 Bft)
02.01.2010 15:55 -1,7 C 2,7 C -2,6 C -2,5 C -4,0 C 0,0 C 89 % 95 % 0 % 1014,7 hPa 0,0 l/m 3,4 km/h (1 Bft) NO 45 0 min 0,0 UV-I -3,3 C -4,0 C 6,6 km/h (2 Bft)
02.01.2010 16:00 -1,9 C 2,7 C -2,5 C -2,6 C -4,0 C 0,0 C 89 % 95 % 0 % 1014,7 hPa 0,0 l/m 3,2 km/h (1 Bft) NO 45 0 min 0,0 UV-I -3,5 C -4,0 C 2,9 km/h (1 Bft)
02.01.2010 16:05 -2,0 C 2,7 C -2,7 C -2,6 C -3,9 C 0,0 C 89 % 95 % 0 % 1014,7 hPa 0,0 l/m 2,9 km/h (1 Bft) NO 45 0 min 0,0 UV-I -3,6 C -3,9 C 2,6 km/h (1 Bft)
02.01.2010 16:10 -2,0 C 2,7 C -2,7 C -2,6 C -3,8 C 0,0 C 89 % 95 % 0 % 1014,7 hPa 0,0 l/m 2,7 km/h (1 Bft) NO 45 0 min 0,0 UV-I -3,6 C -3,8 C 4,8 km/h (1 Bft)
02.01.2010 16:15 -2,0 C 2,7 C -2,7 C -2,4 C -3,3 C 0,0 C 89 % 95 % 0 % 1014,7 hPa 0,0 l/m 2,3 km/h (1 Bft) NO 45 0 min 0,0 UV-I -3,6 C -3,3 C 2,9 km/h (1 Bft)
02.01.2010 16:20 -2,1 C 2,7 C -2,7 C -2,8 C -4,3 C 0,0 C 89 % 95 % 0 % 1014,7 hPa 0,0 l/m 3,4 km/h (1 Bft) NO 45 0 min 0,0 UV-I -3,7 C -4,3 C 9,7 km/h (2 Bft)
02.01.2010 16:25 -2,1 C 2,7 C -2,9 C -3,0 C -4,8 C 0,0 C 89 % 95 % 0 % 1014,7 hPa 0,0 l/m 3,9 km/h (1 Bft) NO 45 0 min 0,0 UV-I -3,7 C -4,8 C 6,4 km/h (2 Bft)
02.01.2010 16:30 -2,1 C 2,7 C -2,9 C -3,0 C -4,9 C 0,0 C 89 % 95 % 0 % 1014,7 hPa 0,0 l/m 4,0 km/h (1 Bft) NO 45 0 min 0,0 UV-I -3,7 C -4,9 C 6,4 km/h (2 Bft)
02.01.2010 16:35 -2,1 C 2,7 C -2,9 C -3,0 C -4,8 C 0,0 C 89 % 95 % 0 % 1015,5 hPa 0,0 l/m 3,9 km/h (1 Bft) NO 45 0 min 0,0 UV-I -3,7 C -4,8 C 6,3 km/h (2 Bft)
02.01.2010 16:40 -2,2 C 2,7 C -2,9 C -3,1 C -5,0 C 0,0 C 89 % 95 % 0 % 1015,5 hPa 0,0 l/m 4,2 km/h (1 Bft) NO 45 0 min 0,0 UV-I -3,8 C -5,0 C 2,4 km/h (1 Bft)
02.01.2010 16:45 -2,3 C 2,7 C -2,9 C -3,2 C -5,0 C 0,0 C 89 % 95 % 0 % 1015,5 hPa 0,0 l/m 4,2 km/h (1 Bft) NO 45 0 min 0,0 UV-I -3,9 C -5,0 C 3,7 km/h (1 Bft)
02.01.2010 16:50 -2,3 C 2,7 C -2,9 C -3,2 C -4,9 C 0,0 C 89 % 95 % 0 % 1015,5 hPa 0,0 l/m 4,0 km/h (1 Bft) NO 45 0 min 0,0 UV-I -3,9 C -4,9 C 3,5 km/h (1 Bft)
02.01.2010 16:55 -2,3 C 2,7 C -2,9 C -3,1 C -4,8 C 0,0 C 89 % 95 % 0 % 1016,2 hPa 0,0 l/m 3,9 km/h (1 Bft) NO 45 0 min 0,0 UV-I -3,9 C -4,8 C 2,9 km/h (1 Bft)
02.01.2010 17:00 -2,3 C 2,7 C -2,9 C -3,1 C -4,7 C 0,0 C 89 % 95 % 0 % 1016,2 hPa 0,7 l/m 3,7 km/h (1 Bft) NO 45 0 min 0,0 UV-I -3,9 C -4,7 C 4,7 km/h (1 Bft)
02.01.2010 17:05 -2,3 C 2,7 C -2,9 C -3,1 C -4,6 C 0,0 C 89 % 95 % 0 % 1016,2 hPa 0,0 l/m 3,5 km/h (1 Bft) NO 45 0 min 0,0 UV-I -3,9 C -4,6 C 4,0 km/h (1 Bft)
02.01.2010 17:10 -2,3 C 2,7 C -2,9 C -3,0 C -4,4 C 0,0 C 89 % 95 % 0 % 1016,2 hPa 0,0 l/m 3,2 km/h (1 Bft) NO 45 0 min 0,0 UV-I -3,9 C -4,4 C 4,5 km/h (1 Bft)
02.01.2010 17:15 -2,4 C 2,7 C -2,9 C -3,2 C -4,8 C 0,0 C 89 % 95 % 0 % 1015,9 hPa 0,0 l/m 3,7 km/h (1 Bft) NO 45 0 min 0,0 UV-I -4,0 C -4,8 C 5,0 km/h (1 Bft)
02.01.2010 17:20 -2,3 C 2,7 C -2,9 C -3,2 C -5,1 C 0,0 C 89 % 95 % 0 % 1015,9 hPa 0,0 l/m 4,2 km/h (1 Bft) NO 45 0 min 0,0 UV-I -3,9 C -5,1 C 6,4 km/h (2 Bft)
02.01.2010 17:25 -2,5 C 2,7 C -2,9 C -3,3 C -4,8 C 0,0 C 89 % 95 % 0 % 1015,9 hPa 0,0 l/m 3,7 km/h (1 Bft) NO 45 0 min 0,0 UV-I -4,1 C -4,8 C 9,0 km/h (2 Bft)
02.01.2010 17:30 -2,5 C 2,7 C -2,9 C -3,4 C -5,1 C 0,0 C 89 % 95 % 0 % 1015,9 hPa 0,0 l/m 4,2 km/h (1 Bft) NO 45 0 min 0,0 UV-I -4,1 C -5,1 C 3,9 km/h (1 Bft)
02.01.2010 17:35 -2,5 C 2,7 C -2,9 C -3,5 C -5,4 C 0,0 C 89 % 95 % 0 % 1016,7 hPa 0,0 l/m 4,5 km/h (1 Bft) NO 45 0 min 0,0 UV-I -4,1 C -5,4 C 3,5 km/h (1 Bft)
02.01.2010 17:40 -2,5 C 2,7 C -2,9 C -3,2 C -4,7 C 0,0 C 89 % 95 % 0 % 1016,7 hPa 0,0 l/m 3,4 km/h (1 Bft) NO 45 0 min 0,0 UV-I -4,1 C -4,7 C 3,4 km/h (1 Bft)
02.01.2010 17:45 -2,3 C 2,7 C -2,9 C -2,9 C -4,2 C 0,0 C 89 % 95 % 0 % 1016,7 hPa 0,0 l/m 2,7 km/h (1 Bft) NO 45 0 min 0,0 UV-I -3,9 C -4,2 C 0,0 km/h (0 Bft)
02.01.2010 17:50 -2,3 C 2,7 C -2,9 C -2,9 C -4,1 C 0,0 C 89 % 95 % 0 % 1016,7 hPa 0,0 l/m 2,6 km/h (1 Bft) NO 45 0 min 0,0 UV-I -3,9 C -4,1 C 2,7 km/h (1 Bft)
02.01.2010 17:55 -2,5 C 2,7 C -3,1 C -3,0 C -4,1 C 0,0 C 89 % 95 % 0 % 1016,7 hPa 0,0 l/m 2,6 km/h (1 Bft) NO 45 0 min 0,0 UV-I -4,1 C -4,1 C 4,5 km/h (1 Bft)
02.01.2010 18:00 -2,5 C 2,7 C -3,1 C -3,3 C -4,9 C 0,0 C 89 % 95 % 0 % 1016,7 hPa 0,7 l/m 3,7 km/h (1 Bft) NO 45 0 min 0,0 UV-I -4,1 C -4,9 C 6,3 km/h (2 Bft)
02.01.2010 18:05 -2,5 C 2,7 C -2,9 C -3,2 C -4,6 C 0,0 C 89 % 95 % 0 % 1016,7 hPa 0,0 l/m 3,2 km/h (1 Bft) NO 45 0 min 0,0 UV-I -4,1 C -4,6 C 0,0 km/h (0 Bft)
02.01.2010 18:10 -2,5 C 2,6 C -3,1 C -3,1 C -4,4 C 0,0 C 88 % 95 % 0 % 1016,7 hPa 0,0 l/m 2,9 km/h (1 Bft) NO 45 0 min 0,0 UV-I -4,2 C -4,4 C 1,9 km/h (1 Bft)
02.01.2010 18:15 -2,5 C 2,6 C -3,1 C -3,1 C -4,3 C 0,0 C 88 % 95 % 0 % 1016,7 hPa 0,0 l/m 2,7 km/h (1 Bft) NO 45 0 min 0,0 UV-I -4,2 C -4,3 C 4,8 km/h (1 Bft)
02.01.2010 18:20 -2,5 C 2,6 C -3,1 C -3,2 C -4,7 C 0,0 C 88 % 94 % 0 % 1016,7 hPa 0,0 l/m 3,2 km/h (1 Bft) NO 45 0 min 0,0 UV-I -4,2 C -4,7 C 4,8 km/h (1 Bft)
02.01.2010 18:25 -2,5 C 2,6 C -3,1 C -3,3 C -4,8 C 0,0 C 88 % 94 % 0 % 1016,7 hPa 0,0 l/m 3,4 km/h (1 Bft) NO 45 0 min 0,0 UV-I -4,2 C -4,8 C 2,7 km/h (1 Bft)
02.01.2010 18:30 -2,5 C 2,6 C -3,1 C -3,2 C -4,5 C 0,0 C 88 % 94 % 0 % 1016,7 hPa 0,0 l/m 2,9 km/h (1 Bft) NO 45 0 min 0,0 UV-I -4,2 C -4,5 C 4,0 km/h (1 Bft)
02.01.2010 18:35 -2,6 C 2,6 C -3,1 C -3,0 C -3,8 C 0,0 C 88 % 94 % 0 % 1016,7 hPa 0,0 l/m 1,9 km/h (1 Bft) NO 45 0 min 0,0 UV-I -4,3 C -3,8 C 1,6 km/h (1 Bft)
02.01.2010 18:40 -2,6 C 2,6 C -3,1 C -3,0 C -3,8 C 0,0 C 88 % 94 % 0 % 1016,7 hPa 0,0 l/m 1,9 km/h (1 Bft) NO 45 0 min 0,0 UV-I -4,3 C -3,8 C 1,6 km/h (1 Bft)
02.01.2010 18:45 -2,5 C 2,6 C -3,1 C -3,0 C -3,9 C 0,0 C 88 % 95 % 0 % 1016,7 hPa 0,0 l/m 1,8 km/h (1 Bft) NO 45 0 min 0,0 UV-I -4,2 C -3,9 C 2,9 km/h (1 Bft)
02.01.2010 18:50 -2,5 C 2,6 C -3,1 C -3,0 C -3,9 C 0,0 C 88 % 95 % 0 % 1016,7 hPa 0,0 l/m 1,9 km/h (1 Bft) NO 45 0 min 0,0 UV-I -4,2 C -3,9 C 2,1 km/h (1 Bft)
02.01.2010 18:55 -2,5 C 2,6 C -3,2 C -3,0 C -3,9 C 0,0 C 88 % 95 % 0 % 1017,1 hPa 0,0 l/m 2,1 km/h (1 Bft) NO 45 0 min 0,0 UV-I -4,2 C -3,9 C 1,8 km/h (1 Bft)
02.01.2010 19:00 -2,5 C 2,7 C -3,1 C -3,0 C -3,9 C 0,0 C 88 % 95 % 0 % 1017,1 hPa 0,7 l/m 2,1 km/h (1 Bft) NO 45 0 min 0,0 UV-I -4,2 C -3,9 C 2,3 km/h (1 Bft)
02.01.2010 19:05 -2,6 C 2,6 C -3,2 C -3,2 C -4,4 C 0,0 C 88 % 95 % 0 % 1017,1 hPa 0,0 l/m 2,7 km/h (1 Bft) NO 45 0 min 0,0 UV-I -4,3 C -4,4 C 4,3 km/h (1 Bft)
02.01.2010 19:10 -2,5 C 2,7 C -3,2 C -3,3 C -4,8 C 0,0 C 88 % 95 % 0 % 1017,1 hPa 0,0 l/m 3,4 km/h (1 Bft) NO 45 0 min 0,0 UV-I -4,2 C -4,8 C 4,3 km/h (1 Bft)
02.01.2010 19:15 -2,5 C 2,6 C -3,2 C -3,4 C -5,2 C 0,0 C 88 % 95 % 0 % 1017,1 hPa 0,0 l/m 3,9 km/h (1 Bft) NO 45 0 min 0,0 UV-I -4,2 C -5,2 C 4,0 km/h (1 Bft)
02.01.2010 19:20 -2,5 C 2,6 C -3,3 C -3,4 C -5,2 C 0,0 C 88 % 94 % 0 % 1017,1 hPa 0,0 l/m 3,7 km/h (1 Bft) NO 45 0 min 0,0 UV-I -4,2 C -5,2 C 3,7 km/h (1 Bft)
02.01.2010 19:25 -2,7 C 2,6 C -3,3 C -3,5 C -5,1 C 0,0 C 88 % 94 % 0 % 1017,1 hPa 0,0 l/m 3,5 km/h (1 Bft) NO 45 0 min 0,0 UV-I -4,4 C -5,1 C 4,0 km/h (1 Bft)
02.01.2010 19:30 -2,7 C 2,6 C -3,3 C -3,4 C -4,9 C 0,0 C 88 % 94 % 0 % 1017,1 hPa 0,0 l/m 3,2 km/h (1 Bft) NO 45 0 min 0,0 UV-I -4,4 C -4,9 C 2,3 km/h (1 Bft)
02.01.2010 19:35 -2,7 C 2,6 C -3,3 C -3,3 C -4,6 C 0,0 C 88 % 94 % 0 % 1017,1 hPa 0,0 l/m 2,7 km/h (1 Bft) NO 45 0 min 0,0 UV-I -4,4 C -4,6 C 3,2 km/h (1 Bft)
02.01.2010 19:40 -2,7 C 2,6 C -3,3 C -3,5 C -5,2 C 0,0 C 87 % 94 % 0 % 1017,1 hPa 0,0 l/m 3,5 km/h (1 Bft) NO 45 0 min 0,0 UV-I -4,6 C -5,2 C 6,4 km/h (2 Bft)
02.01.2010 19:45 -2,8 C 2,6 C -3,3 C -4,0 C -6,4 C 0,0 C 87 % 94 % 0 % 1017,1 hPa 0,0 l/m 5,3 km/h (1 Bft) NO 45 0 min 0,0 UV-I -4,7 C -9,0 C 9,3 km/h (2 Bft)
02.01.2010 19:50 -2,9 C 2,6 C -3,5 C -4,1 C -6,4 C 0,0 C 87 % 93 % 0 % 1017,1 hPa 0,0 l/m 5,1 km/h (1 Bft) NO 45 0 min 0,0 UV-I -4,8 C -8,9 C 3,9 km/h (1 Bft)
02.01.2010 19:55 -2,9 C 2,6 C -3,5 C -4,0 C -6,2 C 0,0 C 87 % 94 % 0 % 1018,1 hPa 0,0 l/m 4,7 km/h (1 Bft) NO 45 0 min 0,0 UV-I -4,8 C -8,4 C 7,7 km/h (2 Bft)
02.01.2010 20:00 -2,9 C 2,6 C -3,6 C -4,0 C -6,1 C 0,0 C 87 % 93 % 0 % 1018,1 hPa 0,7 l/m 4,3 km/h (1 Bft) NO 45 0 min 0,0 UV-I -4,8 C -6,1 C 6,9 km/h (2 Bft)
02.01.2010 20:10 -2,9 C 2,5 C -3,7 C -4,2 C -6,9 C 0,0 C 86 % 93 % 0 % 1018,1 hPa 0,0 l/m 5,3 km/h (1 Bft) NO 45 0 min 0,0 UV-I -4,9 C -9,6 C 4,8 km/h (1 Bft)
02.01.2010 20:15 -2,9 C 2,5 C -3,8 C -4,2 C -6,7 C 0,0 C 86 % 93 % 0 % 1018,4 hPa 0,0 l/m 5,0 km/h (1 Bft) NO 45 0 min 0,0 UV-I -4,9 C -9,2 C 5,8 km/h (2 Bft)
02.01.2010 20:20 -2,9 C 2,6 C -3,7 C -4,0 C -6,2 C 0,0 C 86 % 93 % 0 % 1018,4 hPa 0,0 l/m 4,0 km/h (1 Bft) NO 45 0 min 0,0 UV-I -4,9 C -6,2 C 4,0 km/h (1 Bft)
02.01.2010 20:25 -2,9 C 2,6 C -3,7 C -3,9 C -6,0 C 0,0 C 86 % 93 % 0 % 1018,4 hPa 0,0 l/m 3,7 km/h (1 Bft) NO 45 0 min 0,0 UV-I -4,9 C -6,0 C 5,0 km/h (1 Bft)
02.01.2010 20:30 -2,9 C 2,6 C -3,7 C -3,9 C -5,9 C 0,0 C 86 % 93 % 0 % 1018,4 hPa 0,0 l/m 3,5 km/h (1 Bft) NO 45 0 min 0,0 UV-I -4,9 C -5,9 C 2,7 km/h (1 Bft)
02.01.2010 20:35 -3,1 C 2,6 C -3,9 C -4,1 C -6,0 C 0,0 C 86 % 93 % 0 % 1018,0 hPa 0,0 l/m 3,7 km/h (1 Bft) NO 45 0 min 0,0 UV-I -5,1 C -6,0 C 3,7 km/h (1 Bft)
02.01.2010 20:40 -3,1 C 2,6 C -3,7 C -4,1 C -6,0 C 0,0 C 86 % 93 % 0 % 1018,0 hPa 0,0 l/m 3,7 km/h (1 Bft) NO 45 0 min 0,0 UV-I -5,1 C -6,0 C 4,0 km/h (1 Bft)
02.01.2010 20:45 -3,1 C 2,6 C -3,9 C -3,9 C -5,6 C 0,0 C 86 % 93 % 0 % 1018,0 hPa 0,0 l/m 3,1 km/h (1 Bft) NO 45 0 min 0,0 UV-I -5,1 C -5,6 C 3,1 km/h (1 Bft)
02.01.2010 20:50 -3,1 C 2,6 C -3,9 C -3,9 C -5,6 C 0,0 C 86 % 93 % 0 % 1018,0 hPa 0,0 l/m 3,1 km/h (1 Bft) NO 45 0 min 0,0 UV-I -5,1 C -5,6 C 5,8 km/h (2 Bft)
02.01.2010 20:55 -3,1 C 2,6 C -3,9 C -4,1 C -6,0 C 0,0 C 86 % 93 % 0 % 1018,0 hPa 0,0 l/m 3,7 km/h (1 Bft) NO 45 0 min 0,0 UV-I -5,1 C -6,0 C 2,4 km/h (1 Bft)
02.01.2010 21:00 -3,1 C 2,6 C -3,9 C -4,0 C -5,9 C 0,0 C 86 % 93 % 0 % 1018,0 hPa 0,7 l/m 3,5 km/h (1 Bft) NO 45 0 min 0,0 UV-I -5,1 C -5,9 C 4,0 km/h (1 Bft)
02.01.2010 21:05 -3,1 C 2,6 C -3,9 C -3,9 C -5,4 C 0,0 C 86 % 93 % 0 % 1018,0 hPa 0,0 l/m 2,9 km/h (1 Bft) NO 45 0 min 0,0 UV-I -5,1 C -5,4 C 3,9 km/h (1 Bft)
02.01.2010 21:10 -3,1 C 2,6 C -3,9 C -3,9 C -5,4 C 0,0 C 86 % 93 % 0 % 1018,0 hPa 0,0 l/m 2,9 km/h (1 Bft) NO 45 0 min 0,0 UV-I -5,1 C -5,4 C 4,0 km/h (1 Bft)
02.01.2010 21:15 -3,1 C 2,6 C -3,9 C -3,9 C -5,6 C 0,0 C 86 % 93 % 0 % 1018,1 hPa 0,0 l/m 3,1 km/h (1 Bft) NO 45 0 min 0,0 UV-I -5,1 C -5,6 C 3,1 km/h (1 Bft)
02.01.2010 21:20 -3,1 C 2,6 C -3,9 C -4,0 C -5,8 C 0,0 C 86 % 93 % 0 % 1018,1 hPa 0,0 l/m 3,4 km/h (1 Bft) NO 45 0 min 0,0 UV-I -5,1 C -5,8 C 4,3 km/h (1 Bft)
02.01.2010 21:25 -3,1 C 2,5 C -3,9 C -4,0 C -5,8 C 0,0 C 86 % 94 % 0 % 1018,1 hPa 0,0 l/m 3,4 km/h (1 Bft) NO 45 0 min 0,0 UV-I -5,1 C -5,8 C 2,6 km/h (1 Bft)
02.01.2010 21:30 -3,2 C 2,5 C -3,7 C -3,8 C -5,0 C 0,0 C 86 % 93 % 0 % 1018,1 hPa 0,0 l/m 2,4 km/h (1 Bft) NO 45 0 min 0,0 UV-I -5,2 C -5,0 C 2,1 km/h (1 Bft)
02.01.2010 21:35 -3,1 C 2,5 C -3,7 C -3,6 C -4,6 C 0,0 C 86 % 94 % 0 % 1018,1 hPa 0,0 l/m 1,6 km/h (1 Bft) NO 45 0 min 0,0 UV-I -5,1 C -4,6 C 2,4 km/h (1 Bft)
02.01.2010 21:40 -3,3 C 2,5 C -3,7 C -3,7 C -4,6 C 0,0 C 86 % 93 % 0 % 1018,1 hPa 0,0 l/m 1,0 km/h (0 Bft) NO 45 0 min 0,0 UV-I -5,3 C -4,6 C 2,3 km/h (1 Bft)
02.01.2010 21:45 -3,3 C 2,5 C -3,7 C -3,7 C -4,6 C 0,0 C 86 % 94 % 0 % 1018,1 hPa 0,0 l/m 0,3 km/h (0 Bft) NO 45 0 min 0,0 UV-I -5,3 C -4,6 C 0,0 km/h (0 Bft)
02.01.2010 21:50 -3,3 C 2,5 C -3,7 C -3,8 C -4,7 C 0,0 C 86 % 94 % 0 % 1018,1 hPa 0,0 l/m 0,3 km/h (0 Bft) NO 45 0 min 0,0 UV-I -5,3 C -4,7 C 0,0 km/h (0 Bft)
02.01.2010 21:55 -3,3 C 2,5 C -3,9 C -3,8 C -4,7 C 0,0 C 86 % 94 % 0 % 1018,1 hPa 0,0 l/m 0,0 km/h (0 Bft) NO 45 0 min 0,0 UV-I -5,3 C -4,7 C 0,0 km/h (0 Bft)
02.01.2010 22:00 -3,3 C 2,5 C -3,7 C -3,8 C -4,8 C 0,0 C 86 % 94 % 0 % 1018,1 hPa 0,0 l/m 0,0 km/h (0 Bft) NO 45 0 min 0,0 UV-I -5,3 C -4,8 C 0,0 km/h (0 Bft)
02.01.2010 22:05 -3,3 C 2,5 C -3,7 C -3,8 C -4,8 C 0,0 C 86 % 94 % 0 % 1018,1 hPa 0,0 l/m 0,0 km/h (0 Bft) NO 45 0 min 0,0 UV-I -5,3 C -4,8 C 0,0 km/h (0 Bft)
02.01.2010 22:10 -3,3 C 2,5 C -3,7 C -3,8 C -4,8 C 0,0 C 86 % 94 % 0 % 1018,1 hPa 0,7 l/m 0,0 km/h (0 Bft) NO 45 0 min 0,0 UV-I -5,3 C -4,8 C 0,0 km/h (0 Bft)
02.01.2010 22:15 -3,3 C 2,5 C -3,8 C -3,8 C -4,8 C 0,0 C 86 % 94 % 0 % 1018,1 hPa 0,0 l/m 0,0 km/h (0 Bft) NO 45 0 min 0,0 UV-I -5,3 C -4,8 C 0,0 km/h (0 Bft)
02.01.2010 22:20 -3,3 C 2,5 C -3,7 C -3,8 C -4,7 C 0,0 C 86 % 94 % 0 % 1018,1 hPa 0,0 l/m 0,0 km/h (0 Bft) NO 45 0 min 0,0 UV-I -5,3 C -4,7 C 0,0 km/h (0 Bft)
02.01.2010 22:25 -3,3 C 2,5 C -3,7 C -3,8 C -4,7 C 0,0 C 87 % 94 % 0 % 1018,1 hPa 0,0 l/m 0,0 km/h (0 Bft) NO 45 0 min 0,0 UV-I -5,1 C -4,7 C 0,0 km/h (0 Bft)
02.01.2010 22:30 -3,3 C 2,5 C -3,7 C -3,8 C -4,7 C 0,0 C 87 % 94 % 0 % 1018,1 hPa 0,0 l/m 0,0 km/h (0 Bft) NO 45 0 min 0,0 UV-I -5,1 C -4,7 C 0,0 km/h (0 Bft)
02.01.2010 22:35 -3,3 C 2,5 C -3,7 C -3,8 C -4,7 C 0,0 C 87 % 94 % 0 % 1018,1 hPa 0,0 l/m 0,2 km/h (0 Bft) NO 45 0 min 0,0 UV-I -5,1 C -4,7 C 1,8 km/h (1 Bft)
02.01.2010 22:40 -3,3 C 2,5 C -3,7 C -3,8 C -4,7 C 0,0 C 87 % 94 % 0 % 1018,1 hPa 0,0 l/m 0,3 km/h (0 Bft) NO 45 0 min 0,0 UV-I -5,1 C -4,7 C 2,9 km/h (1 Bft)
02.01.2010 22:45 -3,3 C 2,5 C -3,9 C -3,8 C -4,8 C 0,0 C 87 % 94 % 0 % 1018,1 hPa 0,0 l/m 0,5 km/h (0 Bft) NO 45 0 min 0,0 UV-I -5,1 C -4,8 C 1,9 km/h (1 Bft)
02.01.2010 22:50 -3,3 C 2,5 C -3,9 C -3,8 C -4,7 C 0,0 C 87 % 94 % 0 % 1018,1 hPa 0,0 l/m 0,6 km/h (0 Bft) NO 45 0 min 0,0 UV-I -5,1 C -4,7 C 0,0 km/h (0 Bft)
02.01.2010 22:55 -3,3 C 2,5 C -3,9 C -3,8 C -4,9 C 0,0 C 86 % 94 % 0 % 1018,1 hPa 0,0 l/m 0,3 km/h (0 Bft) NO 45 0 min 0,0 UV-I -5,3 C -4,9 C 0,0 km/h (0 Bft)
02.01.2010 23:00 -3,3 C 2,6 C -3,9 C -3,9 C -5,1 C 0,0 C 86 % 94 % 0 % 1018,1 hPa 0,0 l/m 0,6 km/h (0 Bft) NO 45 0 min 0,0 UV-I -5,3 C -5,1 C 1,9 km/h (1 Bft)
02.01.2010 23:05 -3,6 C 2,5 C -4,1 C -4,2 C -5,4 C 0,0 C 86 % 93 % 0 % 1018,1 hPa 0,0 l/m 0,8 km/h (0 Bft) NO 45 0 min 0,0 UV-I -5,6 C -5,4 C 1,6 km/h (1 Bft)
02.01.2010 23:10 -3,7 C 2,5 C -4,3 C -4,3 C -5,6 C 0,0 C 86 % 93 % 0 % 1018,1 hPa 0,0 l/m 0,5 km/h (0 Bft) NO 45 0 min 0,0 UV-I -5,7 C -5,6 C 0,0 km/h (0 Bft)
02.01.2010 23:15 -3,7 C 2,6 C -4,5 C -4,4 C -5,9 C 0,0 C 86 % 93 % 0 % 1017,6 hPa 0,0 l/m 0,2 km/h (0 Bft) NO 45 0 min 0,0 UV-I -5,7 C -5,9 C 0,0 km/h (0 Bft)
02.01.2010 23:17 -4,1 C 2,6 C -4,8 C -4,8 C -6,1 C 0,0 C 86 % 93 % 0 % 1017,6 hPa 0,0 l/m 0,0 km/h (0 Bft) NO 45 0 min 0,0 UV-I -6,1 C -6,1 C 0,0 km/h (0 Bft)
02.01.2010 23:21 -4,1 C 2,6 C -4,8 C -4,8 C -6,1 C 0,0 C 86 % 93 % 0 % 1017,6 hPa 0,0 l/m 0,0 km/h (0 Bft) NO 45 0 min 0,0 UV-I -6,1 C -6,1 C 0,0 km/h (0 Bft)
02.01.2010 23:25 -4,1 C 2,7 C -4,9 C -5,0 C -6,7 C 0,0 C 86 % 93 % 0 % 1017,6 hPa 0,0 l/m 0,0 km/h (0 Bft) NO 45 0 min 0,0 UV-I -6,1 C -6,7 C 0,0 km/h (0 Bft)
02.01.2010 23:30 -4,1 C 2,7 C -4,9 C -5,0 C -6,9 C 0,0 C 86 % 93 % 0 % 1017,6 hPa 0,0 l/m 0,0 km/h (0 Bft) NO 45 0 min 0,0 UV-I -6,1 C -6,9 C 0,0 km/h (0 Bft)
02.01.2010 23:35 -4,2 C 2,7 C -5,1 C -5,2 C -7,1 C 0,0 C 86 % 93 % 0 % 1017,6 hPa 0,0 l/m 0,0 km/h (0 Bft) NO 45 0 min 0,0 UV-I -6,2 C -7,1 C 0,0 km/h (0 Bft)
02.01.2010 23:40 -4,3 C 2,7 C -5,2 C -5,4 C -7,5 C 0,0 C 87 % 93 % 0 % 1017,6 hPa 0,0 l/m 0,0 km/h (0 Bft) NO 45 0 min 0,0 UV-I -6,1 C -7,5 C 0,0 km/h (0 Bft)
02.01.2010 23:45 -4,6 C 2,6 C -5,5 C -5,7 C -7,8 C 0,0 C 86 % 93 % 0 % 1017,6 hPa 0,0 l/m 0,0 km/h (0 Bft) NO 45 0 min 0,0 UV-I -6,6 C -7,8 C 0,0 km/h (0 Bft)
02.01.2010 23:50 -4,8 C 2,7 C -5,7 C -5,8 C -7,7 C 0,0 C 86 % 92 % 0 % 1017,6 hPa 0,0 l/m 0,0 km/h (0 Bft) NO 45 0 min 0,0 UV-I -6,8 C -7,7 C 0,0 km/h (0 Bft)
02.01.2010 23:55 -4,9 C 2,7 C -5,9 C -5,8 C -7,7 C 0,0 C 86 % 93 % 0 % 1017,6 hPa 0,0 l/m 0,0 km/h (0 Bft) NO 45 0 min 0,0 UV-I -6,9 C -7,7 C 0,0 km/h (0 Bft)
_ Min-Zeit 23:55 20:10 23:55 23:50 23:45 00:00 13:20 23:50 00:00 00:15 - 00:00 - - - 00:00 23:55 20:10 00:00
Minimum _ -4,9 C 2,5 C -5,9 C -5,8 C -7,8 C 0,0 C 86 % 92 % 0 % 1001,9 hPa - 0,0 km/h (0 Bft) - - - 0,0 UV-I -6,9 C -9,6 C 0,0 km/h (0 Bft)
_ Max-Zeit 12:20 00:40 12:25 12:25 12:25 00:00 00:00 00:00 00:00 20:15 17:00 19:45 - - 00:00 00:00 12:20 12:25 15:35
Maximum _ -0,1 C 3,0 C -1,5 C -0,3 C -0,8 C 0,0 C 90 % 96 % 0 % 1018,4 hPa 0,7 l/m 5,3 km/h
NO (1 Bft)
- - 0 min 0,0 UV-I -2,0 C -0,8 C 13,2 km/h
NO (3 Bft)
Durchschnitt _ -2,1 C 2,8 C -2,8 C -2,7 C -3,7 C 0,0 C 88 % 95 % 0 % 1010,6 hPa #4,1 l/m 2,0 km/h (1 Bft) NO - #0 min. 0,0 UV-I -3,8 C -3,8 C 2,8 km/h (1 Bft)
2013 www.wetterstation-wechselburg.de